Flag for Norway Weather past 2 weeks in Volda, Norway

Now
49 °F

Cool.


Feels Like: 49 °F
Forecast: 49 / 52 °F
Wind: 2 mph from Northwest

Location: Dombestein

Current Time: Jul 8, 2015 at 4:17:30 AM

Latest Report: Jul 8, 2015 at 3:00 AM


Visibility: N/A

Pressure: 29.44 "Hg

Humidity: 89%

Dew point: 46 °F

Location of VoldaLocation

Historic Weather in Volda — Graph

°F

Volda temperature yesterday

Maximum temperature yesterday: 56 °F (at 3:00 PM)
Minimum temperature yesterday: 49 °F (at 11:00 PM)
Average temperature yesterday: 53 °F

Past Weeks' High & Low Weather Summary

 TemperatureHumidityPressure
High80 °F (Jul 5, 2:00 PM)95% (Jun 29, 4:00 AM)30.31 "Hg (Jun 29, 4:00 AM)
Low42 °F (Jun 27, 4:00 AM)31% (Jul 5, 2:00 PM)29.44 "Hg (Jul 8, 2:00 AM)
Average57 °F75%29.93 "Hg
* Reported Jun 23 4:00 AM — Jul 8 3:00 AM, Volda, Weather by CustomWeather, © 2015

Note: Actual official high and low records may vary slightly from our data, if they occured in-between our weather recording intervals... More about our weather records

Advertising

Volda weather history for previous 24 hours

 ConditionsComfort  
Time TempWeatherWind HumidityBarometerVisibility
3:00 AM
Wed, Jul 8
49 °FCool.2 mph89%29.44 "HgN/A
2:00 AM49 °FCool.2 mph87%29.44 "HgN/A
1:00 AM49 °FCool.2 mph91%29.47 "HgN/A
12:00 AM49 °FCool.1 mph92%29.47 "HgN/A
11:00 PM
Tue, Jul 7
49 °FCool.2 mph92%29.50 "HgN/A
10:00 PM51 °FCool.1 mph90%29.54 "HgN/A
9:00 PM51 °FCool.3 mph87%29.55 "HgN/A
8:00 PM53 °FCool.2 mph84%29.58 "HgN/A
7:00 PM55 °FCool.1 mph81%29.59 "HgN/A
6:00 PM54 °FCool.1 mph85%29.61 "HgN/A
5:00 PM55 °FCool.1 mph83%29.63 "HgN/A
4:00 PM54 °FCool.1 mph85%29.65 "HgN/A
3:00 PM56 °FCool.1 mph77%29.65 "HgN/A
2:00 PM54 °FCool.1 mph87%29.67 "HgN/A
1:00 PM53 °FCool.1 mph90%29.67 "HgN/A
12:00 PM53 °FCool.1 mph91%29.67 "HgN/A
11:00 AM53 °FCool.1 mph93%29.67 "HgN/A
10:00 AM52 °FCool.1 mph94%29.66 "HgN/A
9:00 AM51 °FCool.No wind94%29.66 "HgN/A
8:00 AM51 °FCool.1 mph93%29.66 "HgN/A
7:00 AM50 °FCool.No wind92%29.66 "HgN/A
6:00 AM50 °FCool.1 mph90%29.65 "HgN/A
5:00 AM51 °FCool.1 mph84%29.64 "HgN/A
Weather by CustomWeather, © 2015

See weather overviewHow to use our weather pages